User: anonymous   Login
Location: Unspecified
(0.0000°N, 0.0000°E)
Time: 12:22:09
(UTC+00:00)
Language:

NOSS 3-4 (C) - Orbit

View from above orbital plane
View from above orbital plane
View from above satellite
View from above satellite

Ground track
Ground track

The orbit data is extracted from the following two-line orbital elements,

1 31708U 07027C   17142.95787348 0.00000000  00000-0  00000-0 0    04
2 31708  63.4000 147.9142 0187000  23.1604 336.8396 13.40730086    04
Epoch (UTC): 22 May 2017 22:59:20
Eccentricity: 0.0187000
inclination: 63.4000°
perigee height: 966 km
apogee height: 1246 km
right ascension of ascending node: 147.9142°
argument of perigee: 23.1604°
revolutions per day: 13.40730086
mean anomaly at epoch: 336.8396°
orbit number at epoch: 0

The dashed part of the orbit path shows where the satellite is in the earth's shadow,  

DLR